Location: *
(38.8181°S, 103.0319°E)
Time: 11:29:47
(UTC+00:00)

Daily predictions for brighter satellites

Satellite Brightness Start Highest point End
(mag) Time Altitude Azimuth Time Altitude Azimuth Time Altitude Azimuth
Cosmos 1486 Rocket 3.9 12:00:48 10° NNW 12:06:01 78° ENE 12:11:18 10° SSE
GPS 2-05 Rocket1 3.4 12:03:09 10° WNW 12:06:46 50° N 12:07:42 39° NE
Cosmos 1697 Rocket 3.3 12:04:12 10° SSW 12:09:49 59° WNW 12:15:23 10° N
SL-16 R/B 2.9 12:07:52 10° S 12:13:01 33° ESE 12:13:41 32° ESE
Meteor 1-12 Rocket 4.1 12:07:35 10° S 12:13:20 75° E 12:18:59 10° NNE
IDEFIX/ARIANE 42P 3.3 12:12:14 10° S 12:17:25 55° WSW 12:22:30 10° NNW
Cosmos 1934 Rocket 4.4 12:15:57 10° SSW 12:22:01 64° W 12:28:00 10° N
CZ-2C R/B 3.8 12:19:14 10° S 12:23:43 38° WSW 12:28:16 10° NW
Cosmos 1354 Rocket 3.9 12:25:04 10° N 12:30:21 67° ENE 12:33:26 26° SSE
Cosmos 2360 Rocket 3.9 12:27:34 10° S 12:29:47 17° SSE 12:29:47 17° SSE
Cosmos 1980 Rocket 2.5 12:26:05 10° SSW 12:31:41 65° WNW 12:37:14 10° N
Cosmos 1484 Rocket 3.5 12:28:38 10° S 12:32:36 54° WSW 12:36:26 10° NNW
Abrixas rocket 3.8 12:32:08 10° WSW 12:35:12 30° NW 12:35:23 30° NW
MSX 4.4 12:32:59 10° S 12:38:43 60° WSW 12:44:22 10° NNW
Cosmos 1763 Rocket 3.4 12:35:40 10° SSW 12:41:04 90° W 12:42:47 45° NNE
Cosmos 1812 4.1 12:41:53 10° NNW 12:45:35 39° W 12:49:20 10° S
Cosmos 1975 3.5 12:45:41 10° SSW 12:49:44 54° W 12:50:18 49° NW
Nimbus 7 Rocket 4.3 12:51:42 40° NNE 12:54:03 88° ESE 13:00:08 10° SSW
Gbstr 26 Del rocket 4.1 12:53:49 10° WNW 12:56:43 37° WSW 12:56:43 37° WSW
Cosmos 841 Rocket 3.7 12:55:49 10° SSW 13:01:08 68° WNW 13:01:46 61° NNW
Cosmos 2173 Rocket 3.9 12:56:07 10° S 13:01:58 69° SE 13:01:58 69° SE
Cosmos 2322 Rocket 2.1 12:57:01 10° SSW 13:02:23 79° S 13:02:23 79° S
BREEZE M DEB (TANK) 4.3 12:56:52 10° WSW 13:11:00 45° S 13:11:37 44° SSE
Cosmos 2061 Rocket 4.0 13:04:40 10° S 13:10:53 80° SSE 13:10:53 80° SSE
Cosmos 2100 Rocket 4.0 13:05:34 10° S 13:12:03 87° W 13:12:26 80° NNW
ATLAS 3B R/B 4.0 13:10:39 10° SSW 13:15:03 27° SSE 13:15:03 27° SSE
NOSS 3-1 (A) 4.2 13:09:15 10° NW 13:17:33 73° SW 13:21:15 35° SSE
USA 234 4.5 13:26:45 28° SSE 13:26:45 28° SSE 13:31:25 10° SSW
CZ-3A R/B 4.0 13:36:20 10° SW 13:46:09 30° S 13:46:09 30° S
Atlas Centaur 2 4.4 13:46:09 10° WNW 13:47:20 15° WNW 13:47:20 15° WNW
SL-16 R/B 3.9 13:51:58 10° SW 13:55:36 29° WSW 13:55:36 29° WSW
SL-16 R/B 3.6 20:22:47 10° SSE 20:27:01 41° SE 20:27:01 41° SE
USA 215 4.2 20:43:27 10° SE 20:48:13 36° S 20:48:13 36° S
H-2A R/B 3.8 20:58:34 24° NNE 20:58:34 24° NNE 21:06:15 10° E
Cosmos 2181 Rocket 4.2 20:57:42 10° S 21:04:08 73° E 21:10:34 10° NNE
NOSS 3-1 (C) 3.7 21:04:25 50° S 21:05:49 64° SE 21:11:36 10° NE
Cosmos 2292 Rocket 4.4 21:06:11 80° NNE 21:06:30 84° E 21:13:58 10° S
OTV 4 3.9 21:18:06 11° ENE 21:18:06 11° ENE 21:18:19 10° ENE
Cosmos 1733 Rocket 4.2 21:18:02 40° SSE 21:18:02 40° SSE 21:21:02 10° SSE
Ariane Rocket 3.3 21:11:30 10° NNE 21:16:34 66° ESE 21:21:43 10° S
Cosmos 1818 3.7 21:23:06 60° N 21:23:54 70° ENE 21:29:17 10° SE
Cosmos 2278 Rocket 4.2 21:27:32 15° SSW 21:27:32 15° SSW 21:28:54 10° S
Cosmos 1110 Rocket 4.2 21:30:36 28° N 21:33:24 70° ENE 21:38:46 10° SSE
DELTA 2 R/B (1) 4.4 21:32:11 36° N 21:33:34 42° NNE 21:38:51 10° E
MOZ.5/SAFIR/RUBIN 5/SL-8 3.8 21:29:17 10° SSE 21:34:05 79° ENE 21:35:48 40° N
BREEZE-M R/B 3.3 21:35:00 69° SW 21:35:04 70° SW 21:38:42 10° SE
CSL-04 Rocket 3.6 21:37:24 10° NNE 21:42:42 85° ESE 21:48:05 10° SSW
Cosmos 1908 Rocket 4.1 21:39:24 10° N 21:43:40 58° E 21:48:01 10° SSE
Cosmos 1709 Rocket 4.4 21:45:52 40° WSW 21:45:52 40° WSW 21:51:01 10° S
Cosmos 2082 Rocket 3.5 21:49:19 24° NNW 21:49:19 24° NNW 21:51:47 10° N
Sich 1 Rocket 3.5 21:49:43 11° N 21:54:08 84° W 21:58:46 10° S
Cosmos 1184 Rocket 4.3 21:57:29 27° S 21:57:29 27° S 21:59:11 10° S
Cosmos 1862 3.4 21:52:38 10° N 21:56:40 78° E 22:00:47 10° S
Meteor 2-6 Rocket 4.2 21:53:05 10° SSW 21:58:53 67° W 22:04:46 10° N
BREEZE M DEB (TANK) 3.1 22:00:33 35° SSE 22:00:33 35° SSE 22:02:44 10° SE
Cosmos 1825 2.2 21:57:01 10° N 22:00:49 80° E 22:04:43 10° S
Cosmos 1408 2.6 21:58:57 10° N 22:02:45 85° E 22:06:36 10° S
Cosmos 1833 Rocket 3.4 22:06:12 31° WNW 22:06:12 31° WNW 22:10:33 10° NNW
Cosmos 2074 Rocket 4.0 22:00:24 10° NNW 22:06:39 66° W 22:13:00 10° S
CZ-4 R/B 2.1 22:03:11 10° NNE 22:07:00 52° ESE 22:10:57 10° S
COBE Rocket 4.3 22:04:20 10° NNW 22:08:51 36° W 22:13:20 10° SSW
Cosmos 2327 Rocket 4.5 22:02:43 10° NNW 22:08:59 65° W 22:15:25 10° S
Cosmos 2184 Rocket 3.9 22:02:49 10° NNW 22:09:03 65° W 22:15:19 10° S
Cosmos 2369 Rocket 2.5 22:03:28 10° NNW 22:09:08 70° ENE 22:14:52 10° SSE
SeaSat 1 3.5 22:04:46 10° SE 22:09:35 47° ENE 22:14:19 10° N
BREEZE-M DEB (TANK) 2.5 22:06:17 23° WSW 22:10:01 72° NW 22:12:47 10° NE
SL-16 R/B 3.6 22:07:21 10° SSW 22:12:04 23° WSW 22:12:07 23° WSW
Thor Agena Rocket 3.4 22:13:29 10° S 22:18:37 79° WSW 22:23:41 10° NNW
GENESIS II 4.1 22:17:59 30° NW 22:19:41 60° SW 22:23:27 10° SSE
Cosmos 1674 Rocket 4.2 22:15:38 10° SSW 22:19:44 34° W 22:23:48 10° NNW
BREEZE-M R/B 4.3 22:17:50 24° WSW 22:20:33 45° S 22:32:31 10° ESE
CSL-04 Debris 4.3 22:16:43 10° N 22:22:02 51° W 22:27:24 10° SSW
Cosmos 1238 Rocket 2.6 22:18:18 10° S 22:22:07 74° E 22:25:19 10° NNE
YAOGAN 1 3.2 22:18:42 10° NNE 22:22:59 58° ESE 22:27:19 10° S
Cosmos 1302 Rocket 3.9 22:18:51 10° NNW 22:24:03 80° WSW 22:29:21 10° SSE
Blok-2BL 2.5 22:24:53 36° SSW 22:25:42 81° ESE 22:28:32 10° NE
Cosmos 1610 Rocket 4.4 22:19:48 10° NNW 22:25:58 67° W 22:32:10 10° S
BREEZE-M DEB (TANK) 3.2 22:23:09 16° SW 22:26:12 45° SSE 22:28:32 10° E
Cosmos 2341 Rocket 4.5 22:19:58 10° N 22:26:19 69° E 22:32:45 10° SSE
ATLAS CENTAUR R/B 3.8 22:27:24 10° NNE 22:30:00 20° ENE 22:32:39 10° ESE
Hubble Space Telescope 2.9 22:27:39 10° NW 22:30:30 18° N 22:33:24 10° NE
Cosmos 1606 3.4 22:27:26 10° SSW 22:30:59 32° W 22:34:30 10° NNW
Cosmos 44 Rocket 3.2 22:28:01 10° SW 22:32:52 72° WNW 22:37:49 10° NNE
Okean 2 Rocket 3.1 22:29:42 10° N 22:34:15 81° W 22:38:52 10° S
Cosmos 1486 Rocket 4.0 22:30:29 10° SSW 22:35:48 69° WNW 22:41:05 10° N
Delta 2 Rocket 3.8 22:34:40 17° NW 22:36:55 41° N 22:40:20 10° E
Cosmos 1943 Rocket 3.2 22:32:21 10° N 22:37:42 49° ENE 22:43:03 10° SSE
PAYLOAD A 3.9 22:34:31 10° NNE 22:39:35 84° WNW 22:44:32 10° SSW
Cosmos 2263 4.3 22:34:07 10° NNW 22:39:52 89° ENE 22:45:38 10° SSE
Nadezhda 3 Rocket 4.0 22:33:50 10° S 22:40:08 81° W 22:46:23 10° N
Cosmos 44 3.7 22:37:53 10° SSW 22:42:33 64° ESE 22:47:28 10° NE
NOSS 3-1 (A) 4.0 22:37:04 10° SW 22:42:34 33° WNW 22:47:40 10° N
Cosmos 1378 Rocket 4.0 22:39:24 10° SSW 22:43:29 38° W 22:47:30 10° NNW
CORIOLIS 4.4 22:38:10 10° NNE 22:43:38 80° ESE 22:49:10 10° S
Meteor 1-27 Rocket 4.3 22:42:58 10° SSW 22:48:18 35° W 22:53:30 10° NNW
Cosmos 962 Rocket 4.4 22:43:43 10° N 22:49:54 79° W 22:56:08 10° S
Tiangong 1 1.8 22:47:06 10° NW 22:50:07 49° NNE 22:53:10 10° ESE
OTV 4 0.8 22:49:39 14° WNW 22:52:07 60° N 22:55:06 10° E
Cosmos 1242 Rocket 3.9 22:54:56 10° SW 22:57:32 19° W 23:00:08 10° NW
ATLAS 2AS CENTAUR R/B 2.5 22:53:22 10° SW 22:59:31 81° WNW 23:06:06 10° NNE
Cosmos 1354 Rocket 4.0 22:55:14 10° SSW 23:00:34 79° WNW 23:05:49 10° NNE
Cosmos 1782 Rocket 4.3 22:56:50 10° NW 23:00:46 32° WSW 23:04:48 10° SSW
MONITOR-E 4.3 23:01:25 10° NNE 23:04:41 90° N 23:08:00 10° SSW
CZ-4 R/B 4.5 23:01:16 10° N 23:05:24 64° W 23:09:35 10° SSW
Meteor 1-14 Rocket 4.4 23:00:27 10° NNW 23:06:25 67° W 23:12:26 10° S
Cosmos 1975 Rocket 3.8 23:06:15 10° SSW 23:10:08 30° W 23:13:57 10° NNW
DELTA 2 R/B (2) 3.3 23:11:08 10° WNW 23:12:58 71° N 23:15:28 10° E
Cosmos 1484 Rocket 3.6 23:09:43 10° NNE 23:13:41 60° ESE 23:17:44 10° S
